• In United Kingdom
  • List of Countries
  • For 7 days
  • Water Temperature
  • Satellite Maps
  • Weather Map
  • Weather Widgets
  • user-avatar
    Login

    Hourly Weather Man

    Today, 22 May, Tuesday

    Time Temperature Precipitation Wind Pressure Humidity
    00:00 +25°C° 0 mm 1 mps 725 mmHg 91%
    01:00 +25°C° 0 mm 1 mps 725 mmHg 93%
    02:00 +24°C° 0 mm 1 mps 725 mmHg 96%
    03:00 +24°C° 0 mm 1 mps 725 mmHg 96%
    04:00 +24°C° 0 mm 1 mps 725 mmHg 96%
    05:00 +24°C° 0 mm 1 mps 725 mmHg 97%
    06:00 +26°C° 0 mm 1 mps 726 mmHg 91%
    07:00 +27°C° 0 mm 1 mps 726 mmHg 86%
    08:00 +28°C° 0 mm 1 mps 726 mmHg 80%
    09:00 +30°C° 0.2 mm 1 mps 726 mmHg 74%
    10:00 +31°C° 0.2 mm 1 mps 726 mmHg 68%
    11:00 +34°C° 0.2 mm 2 mps 726 mmHg 61%
    12:00 +33°C° 0.5 mm 1 mps 725 mmHg 62%
    13:00 +33°C° 0.5 mm 1 mps 725 mmHg 62%
    14:00 +34°C° 0.5 mm 1 mps 724 mmHg 62%
    15:00 +32°C° 1.1 mm 1 mps 724 mmHg 69%
    16:00 +30°C° 1.1 mm 1 mps 724 mmHg 76%
    17:00 +29°C° 1.1 mm 2 mps 724 mmHg 83%
    18:00 +28°C° 0.2 mm 2 mps 725 mmHg 86%
    19:00 +27°C° 0.2 mm 2 mps 725 mmHg 90%
    20:00 +26°C° 0.2 mm 1 mps 726 mmHg 93%
    21:00 +26°C° 0.3 mm 2 mps 726 mmHg 94%
    22:00 +25°C° 0.3 mm 2 mps 726 mmHg 94%
    23:00 +25°C° 0.3 mm 2 mps 727 mmHg 95%

    Tomorrow, 23 May, Wednesday

    Time Temperature Precipitation Wind Pressure Humidity
    00:00 +25°C° 0 mm 1 mps 726 mmHg 96%
    01:00 +25°C° 0 mm 1 mps 726 mmHg 97%
    02:00 +24°C° 0 mm 1 mps 726 mmHg 97%
    03:00 +24°C° 0 mm 1 mps 726 mmHg 97%
    04:00 +24°C° 0 mm 1 mps 726 mmHg 97%
    05:00 +25°C° 0 mm 1 mps 726 mmHg 97%
    06:00 +25°C° 0 mm 1 mps 726 mmHg 92%
    07:00 +26°C° 0 mm 1 mps 727 mmHg 88%
    08:00 +27°C° 0 mm 1 mps 727 mmHg 84%
    09:00 +29°C° 0 mm 1 mps 727 mmHg 74%
    10:00 +31°C° 0 mm 2 mps 727 mmHg 65%
    11:00 +34°C° 0 mm 2 mps 727 mmHg 56%
    12:00 +35°C° 0.3 mm 2 mps 726 mmHg 56%
    13:00 +34°C° 0.3 mm 1 mps 726 mmHg 56%
    14:00 +34°C° 0.3 mm 1 mps 725 mmHg 56%
    15:00 +32°C° 3.1 mm 1 mps 725 mmHg 66%
    16:00 +30°C° 3.1 mm 1 mps 725 mmHg 76%
    17:00 +28°C° 3.1 mm 1 mps 725 mmHg 85%
    18:00 +27°C° 0.3 mm 1 mps 725 mmHg 89%
    19:00 +26°C° 0.3 mm 1 mps 726 mmHg 92%
    20:00 +25°C° 0.3 mm 1 mps 727 mmHg 95%
    21:00 +25°C° 0.7 mm 1 mps 727 mmHg 96%
    22:00 +25°C° 0.7 mm 1 mps 727 mmHg 97%
    23:00 +25°C° 0.7 mm 1 mps 727 mmHg 98%

    Day after tomorrow, 24 May, Thursday

    Time Temperature Precipitation Wind Pressure Humidity
    00:00 +24°C° 0.2 mm 1 mps 727 mmHg 98%
    01:00 +24°C° 0.2 mm 1 mps 726 mmHg 98%
    02:00 +22°C° 0.2 mm 0 mps 726 mmHg 98%
    03:00 +22°C° 0 mm 0 mps 726 mmHg 99%
    04:00 +22°C° 0 mm 0 mps 726 mmHg 99%
    05:00 +22°C° 0 mm 0 mps 726 mmHg 99%
    06:00 +23°C° 0 mm 0 mps 727 mmHg 95%
    07:00 +26°C° 0 mm 1 mps 727 mmHg 91%
    08:00 +27°C° 0 mm 1 mps 727 mmHg 88%
    09:00 +29°C° 0 mm 1 mps 727 mmHg 77%
    10:00 +31°C° 0 mm 1 mps 727 mmHg 67%
    11:00 +33°C° 0 mm 1 mps 727 mmHg 56%
    12:00 +34°C° 0.3 mm 1 mps 726 mmHg 56%
    13:00 +34°C° 0.3 mm 1 mps 725 mmHg 56%
    14:00 +34°C° 0.3 mm 1 mps 724 mmHg 56%
    15:00 +33°C° 1 mm 1 mps 724 mmHg 62%
    16:00 +32°C° 1 mm 1 mps 724 mmHg 67%
    17:00 +30°C° 1 mm 1 mps 724 mmHg 73%
    18:00 +29°C° 1.2 mm 1 mps 725 mmHg 79%
    19:00 +27°C° 1.2 mm 1 mps 726 mmHg 84%
    20:00 +26°C° 1.2 mm 1 mps 726 mmHg 90%
    21:00 +26°C° 0.3 mm 1 mps 726 mmHg 91%
    22:00 +26°C° 0.3 mm 1 mps 726 mmHg 93%
    23:00 +25°C° 0.3 mm 1 mps 726 mmHg 94%

    25 May, Friday

    Time Temperature Precipitation Wind Pressure Humidity
    00:00 +25°C° 0 mm 1 mps 726 mmHg 95%
    01:00 +25°C° 0 mm 1 mps 725 mmHg 96%
    02:00 +25°C° 0 mm 1 mps 725 mmHg 97%
    03:00 +25°C° 0 mm 1 mps 725 mmHg 97%
    04:00 +25°C° 0 mm 1 mps 725 mmHg 97%
    05:00 +25°C° 0 mm 1 mps 725 mmHg 97%
    06:00 +26°C° 0 mm 1 mps 726 mmHg 92%
    07:00 +27°C° 0 mm 1 mps 726 mmHg 87%
    08:00 +28°C° 0 mm 1 mps 727 mmHg 82%
    09:00 +30°C° 0 mm 1 mps 726 mmHg 73%
    10:00 +32°C° 0 mm 1 mps 726 mmHg 63%
    11:00 +35°C° 0 mm 2 mps 726 mmHg 53%
    12:00 +35°C° 0 mm 2 mps 725 mmHg 51%
    13:00 +36°C° 0 mm 2 mps 724 mmHg 48%
    14:00 +35°C° 0 mm 1 mps 723 mmHg 46%
    15:00 +34°C° 0 mm 1 mps 724 mmHg 51%
    16:00 +33°C° 0 mm 1 mps 724 mmHg 56%
    17:00 +32°C° 0 mm 1 mps 724 mmHg 61%
    18:00 +30°C° 1.3 mm 1 mps 724 mmHg 72%
    19:00 +28°C° 1.3 mm 1 mps 725 mmHg 83%
    20:00 +26°C° 1.3 mm 2 mps 726 mmHg 95%
    21:00 +25°C° 0.4 mm 2 mps 726 mmHg 96%
    22:00 +25°C° 0.4 mm 1 mps 726 mmHg 97%
    23:00 +25°C° 0.4 mm 1 mps 725 mmHg 98%

    26 May, Saturday

    Time Temperature Precipitation Wind Pressure Humidity
    00:00 +25°C° 0 mm 1 mps 725 mmHg 98%
    01:00 +25°C° 0 mm 1 mps 725 mmHg 98%
    02:00 +25°C° 0 mm 1 mps 724 mmHg 98%
    03:00 +25°C° 0.1 mm 1 mps 724 mmHg 98%
    04:00 +24°C° 0.1 mm 1 mps 725 mmHg 98%
    05:00 +24°C° 0.1 mm 1 mps 725 mmHg 98%
    06:00 +25°C° 0 mm 1 mps 725 mmHg 94%
    07:00 +26°C° 0 mm 1 mps 726 mmHg 91%
    08:00 +27°C° 0 mm 2 mps 726 mmHg 88%
    09:00 +28°C° 0.1 mm 2 mps 726 mmHg 82%
    10:00 +29°C° 0.1 mm 2 mps 726 mmHg 77%
    11:00 +30°C° 0.1 mm 2 mps 726 mmHg 71%
    12:00 +31°C° 0 mm 2 mps 725 mmHg 66%
    13:00 +32°C° 0 mm 2 mps 724 mmHg 60%
    14:00 +35°C° 0 mm 2 mps 724 mmHg 55%
    15:00 +32°C° 0.8 mm 2 mps 724 mmHg 61%
    16:00 +31°C° 0.8 mm 1 mps 724 mmHg 68%
    17:00 +30°C° 0.8 mm 1 mps 724 mmHg 74%
    18:00 +29°C° 2.1 mm 2 mps 724 mmHg 81%
    19:00 +27°C° 2.1 mm 2 mps 725 mmHg 87%
    20:00 +26°C° 2.1 mm 3 mps 725 mmHg 93%
    21:00 +25°C° 1.4 mm 2 mps 726 mmHg 95%
    22:00 +25°C° 1.4 mm 1 mps 726 mmHg 96%
    23:00 +25°C° 1.4 mm 1 mps 726 mmHg 98%

    27 May, Sunday

    Time Temperature Precipitation Wind Pressure Humidity
    00:00 +24°C° 0.5 mm 1 mps 726 mmHg 98%
    01:00 +24°C° 0.5 mm 1 mps 725 mmHg 98%
    02:00 +24°C° 0.5 mm 1 mps 725 mmHg 98%
    03:00 +24°C° 0 mm 1 mps 725 mmHg 98%
    04:00 +24°C° 0 mm 1 mps 725 mmHg 98%
    05:00 +24°C° 0 mm 1 mps 725 mmHg 98%
    06:00 +25°C° 0 mm 1 mps 726 mmHg 96%
    07:00 +26°C° 0 mm 1 mps 726 mmHg 94%
    08:00 +26°C° 0 mm 1 mps 727 mmHg 91%
    09:00 +28°C° 0 mm 1 mps 726 mmHg 84%
    10:00 +29°C° 0 mm 2 mps 726 mmHg 76%
    11:00 +30°C° 0 mm 2 mps 726 mmHg 69%
    12:00 +31°C° 0 mm 2 mps 725 mmHg 67%
    13:00 +31°C° 0 mm 2 mps 725 mmHg 64%
    14:00 +32°C° 0 mm 2 mps 724 mmHg 62%
    15:00 +31°C° 1.5 mm 1 mps 724 mmHg 71%
    16:00 +29°C° 1.5 mm 1 mps 725 mmHg 79%
    17:00 +28°C° 1.5 mm 1 mps 725 mmHg 88%
    18:00 +27°C° 2.8 mm 1 mps 725 mmHg 91%
    19:00 +26°C° 2.8 mm 1 mps 726 mmHg 93%
    20:00 +25°C° 2.8 mm 2 mps 727 mmHg 96%
    21:00 +25°C° 1 mm 1 mps 727 mmHg 97%
    22:00 +25°C° 1 mm 1 mps 727 mmHg 97%
    23:00 +24°C° 1 mm 1 mps 727 mmHg 98%
    Show more